Погода в Макаэ

Бразилия     22°22′20″S   41°47′07″W
темп.,
°C
ветер,
м/с
пор.,
м/с
влажн.,
%
обл.,
%
осадки,
мм/ч
давл.,
гПа
погр.,
м
27 февраля, сб
сб2700:00+22ссз1395100 3.8 1015112
03:00+21юз2396100 4.3 101497
06:00+20юз2296100 0.0 101460
09:00+24юз1088100 0.0 1016271
12:00+27всв2475100 0.1 1015742
15:00+28в337399 0.1 1014817
18:00+24в3791100 0.6 1014269
21:00+22ссв2494100 0.9 1015146
28 февраля, вс
вс2800:00+22ссв2395100 0.0 1015100
03:00+22ссв1296100 0.1 101482
06:00+21с2297100 0.0 101562
09:00+25ссв3682100 0.0 1016646
12:00+28св467096 0.0 10151133
15:00+28всв466995 0.1 10131143
18:00+24всв3787100 0.1 1013285
21:00+22ссв1295100 0.2 101563
1 марта, пн
пн100:00+22с2397100 0.1 1014108
03:00+21с239799 0.1 1013104
06:00+21с2396100 0.0 101475
09:00+26св357966 0.0 1015745
12:00+29св456815 0.0 10141010
15:00+29св466951 0.0 10121054
18:00+24св398641 0.0 1012477
21:00+22с249651 0.0 1014144
2 марта, вт
вт200:00+21с239797 0.0 1014106
03:00+21с239699 0.0 101393
06:00+21ссв239693 0.0 1014103
09:00+26ссв467995 0.0 1016592
12:00+29св456590 0.0 10151010
15:00+30св566586 0.0 10131049
18:00+24св5108431 0.0 1013433
21:00+22ссв399116 0.0 1015362
3 марта, ср
ср300:00+22с369295 0.0 1015231
03:00+22ссв379364 0.0 1014239
06:00+22ссв369438 0.0 1015190
09:00+27ссв357752 0.0 1017385
12:00+31с3560100 0.0 10161154
15:00+31с345890 0.0 10141306
18:00+25св3684100 0.5 1014181
21:00+23ссв3689100 0.9 1016186